"Pseudo-MPEC" for P11gO7R

Created 2021 Jun 20 19:07:17 UT using Find_Orb

Click here for an explanation of pseudo-MPECs

 
 Astrometry: 
     P11gO7R  C2021 06 07FZU%=`-nZtn_N6G,T5Yvm-GxUN+)EQ=0[:=)OkQ4@h\vK9LFt=UYF51
     P11gO7R  C2021 06 07\a[8Z[ou@R$e)9_KOeHYt?AstrometryYH\iKo%2f`%FA'op!GugF51
     P11gO7R  C2021 06 07PhLV=l$qKR6^!LMvR8b8qb3SW^TXYAbGn:B5?u#P,Q0(]Dvt,cM=F51
     P11gO7R  C2021 06 07G'uZ#^[Kyeyi*NIa$Uredacted;848P66Ldwik:7MjqPNS!*,@)OF51
     P11gO7R  C2021 06 07$1xei.XW.Hj42g#$\:QLf[Ts6^Y0B/4SaywI1TI?nSi[Wm=Kxik3F51
     P11gO7R  C2021 06 08wdI\DYX-Geclicknbr2qAQsi_bKp/hAa2gt/QwEO0W\Ww+X9#D0xT12
     P11gO7R  C2021 06 08u*h4F9*0[qGmF1xC0N.hd?eIQ$Lui%KMm_s`D)u$UCq!.Ixw,,KeT12
     P11gO7R  C2021 06 08W*lSsqXFdqs$;Wy?2vj3*:eIkL/aR5M/??ljNlTF?2;v1[bb%uFsT12
     P11gO7R  C2021 06 09;oegYL?HS(ALy3MYJsR\iOHJkd)A0#\ZBI9HBaJ\(#oyQ(#$Z:mcT12
     P11gO7R  C2021 06 09bqUL!v\X2p[/H#J$',-+U`67cnL#b5?3Dkht(F,xFAbIDfMM4e\tT12
     P11gO7R  C2021 06 09Ut^IFae5[y4A..hoah6#k5C?opSZhereS(5'f8''$pbW*iRmQ@blT12
     P11gO7R  C2021 06 09cRI.gmM6=[pJ=_Q]RXVO'g3J?U:forBWu%ermSj(#:E=l(o$F%S'T12
     P11gO7R ^C2021 06 11.27929416 52 37.774+22 43 24.88   ~6BD7 22.92GVNEOCP568
     P11gO7R ^C2021 06 11.28191016 52 37.402+22 43 26.70   ~6BD7 22.80GVNEOCP568
     P11gO7R ^C2021 06 11.28346916 52 37.174+22 43 27.83   ~6BD7 22.78GVNEOCP568
     P11gO7R ^C2021 06 11.33010616 52 30.573+22 44 00.30   ~6BD7 22.24GVNEOCP568
     P11gO7R |C2021 06 12lA+eG;%D=6sB5oIB_QFyvcEX2J$7W`]xkH,(D#=tRowO.Nua$8-\H06
     P11gO7R |C2021 06 12$W;;hURgFTg-\edU()4g'cu/8]4*DexplanationJ.!?#Ct/0udQH06
     P11gO7R KC2021 06 20.08929416 32 27.01 +24 07 55.5    ~6KIM 21.1 GXNEOCPY00
     P11gO7R KC2021 06 20.09680616 32 25.98 +24 07 58.9    ~6KIM 21.3 GXNEOCPY00
     P11gO7R KC2021 06 20.11959516 32 22.95 +24 08 09.7    ~6KIM 21.9 GXNEOCPY00

Station data:
(568) Mauna Kea  (N19.826116 W155.472200)  US/Hawaii.
(F51) Pan-STARRS 1, Haleakala  (N20.707235 W156.255910)  US/Hawaii.
   Observers N. Primak, A. Schultz, S. Watters, J. Thiel, T. Goggia. Measurer
   PS1 Science Consortium. 1.8-m Ritchey-Chrétien + CCD.
(H06) RAS Observatory, Mayhill  (N32.903325 W105.528700)  US/New
   Mexico.  Observers E. Guido, G. Sostero, V. Gonano, L. Donato.
(T12) Mauna Kea-UH/Tholen NEO Follow-Up (2.24-m)  (N19.822991 W155.469434)
   US/Hawaii.  Observers D. Fohring, D. Hung, Y. Ramanjooloo, Z. Claytor, D.
   J. Tholen. 2.24-m University of Hawaii reflector.
(Y00) SONEAR Observatory, Oliveira  (S20.715082 W44.784960)  Brazil.
   Observers C. Jacques, E. Pimentel, J. Barros. Measurer C. Jacques. 0.28-m
   f/2.2 astrograph + CCD.

Orbital elements:  P11gO7R
   Perihelion 2021 Mar 19.622874 +/- 0.303529 TT = 14:56:56 (JD 2459293.122874)
Epoch 2021 Jun 20.0 TT = JDT 2459385.5   Ne: 0.4133           AutoNEOCP
M   0.71711669 +/- 0.0618162        (J2000 ecliptic)
n   0.00776292 +/- 0.000624586      Peri.   26.49166 +/- 0.0812448
a  25.2611115 +/- 1.35402           Node   283.91097 +/- 0.0433953
e   0.8670177 +/- 0.00704699        Incl.  128.95387 +/- 0.0284606
P 126.96                   H 17.1   G  0.15   U  7.8  
q 3.35928034 +/- 0.00196386    Q 47.1629428 +/- 2.33212
From 21 observations 2021 June 7-20; mean residual 0".22
Residuals in arcseconds: 
210607 F51  .18-  .25+    210608 T12  .02+  .04+    210611 568  .14+  .24+    
210607 F51  .17-  .29+    210609 T12  .03-  .08-    210611 568  .25+  .22+    
210607 F51  .36-  .31+    210609 T12  .03-  .08-    210612 H06  .06+  .89+    
210607 F51  .05+  .06+    210609 T12  .06-  .06-    210612 H06  .04-  .46+    
210607 F51  .21-  .02+    210609 T12  .03-  .08-    210620 Y00  .04+  .11-    
210608 T12  .07+  .04+    210611 568  .26+  .21+    210620 Y00  .24-  .15-    
210608 T12  .04+  .04+    210611 568  .24+  .20+    210620 Y00  .20+  .23+    

Ephemerides (geocentric):
Date (UTC) HH   RA              Dec         delta   r     elong  mag " sig PA
---- -- -- --  -------------   -----------  ------ ------ -----  --- ---- ---
2021 06 20 19  16 30 53.889   +24 13 09.78  2.7369 3.4560 127.9 22.8 .066   9
2021 06 20 20  16 30 48.383   +24 13 28.15  2.7374 3.4561 127.9 22.8 .068   9
2021 06 20 21  16 30 42.879   +24 13 46.49  2.7378 3.4562 127.9 22.8 .071   9
2021 06 20 22  16 30 37.377   +24 14 04.77  2.7382 3.4562 127.9 22.8 .074   9
2021 06 20 23  16 30 31.877   +24 14 23.02  2.7387 3.4563 127.8 22.8 .076   8
2021 06 21 00  16 30 26.380   +24 14 41.21  2.7391 3.4564 127.8 22.8 .079   8
2021 06 21 01  16 30 20.885   +24 14 59.37  2.7395 3.4565 127.8 22.8 .082   8
2021 06 21 02  16 30 15.392   +24 15 17.48  2.7400 3.4566 127.7 22.8 .085   8
2021 06 21 03  16 30 09.902   +24 15 35.55  2.7404 3.4567 127.7 22.8 .088   8
2021 06 21 04  16 30 04.414   +24 15 53.57  2.7409 3.4568 127.7 22.8 .090   8
2021 06 21 05  16 29 58.928   +24 16 11.55  2.7413 3.4568 127.6 22.8 .093   8
2021 06 21 06  16 29 53.444   +24 16 29.49  2.7417 3.4569 127.6 22.8 .096   8
2021 06 21 07  16 29 47.962   +24 16 47.38  2.7422 3.4570 127.6 22.8 .099   8
2021 06 21 08  16 29 42.483   +24 17 05.23  2.7426 3.4571 127.5 22.8 .102   7
2021 06 21 09  16 29 37.006   +24 17 23.03  2.7431 3.4572 127.5 22.8 .105   7
2021 06 21 10  16 29 31.532   +24 17 40.79  2.7435 3.4573 127.5 22.8 .108   7
2021 06 21 11  16 29 26.059   +24 17 58.51  2.7440 3.4573 127.4 22.8 .111   7
2021 06 21 12  16 29 20.589   +24 18 16.18  2.7444 3.4574 127.4 22.8 .114   7
2021 06 21 13  16 29 15.122   +24 18 33.81  2.7448 3.4575 127.4 22.8 .117   7
2021 06 21 14  16 29 09.656   +24 18 51.39  2.7453 3.4576 127.4 22.8 .120   7
2021 06 21 15  16 29 04.193   +24 19 08.93  2.7457 3.4577 127.3 22.8 .123   7
2021 06 21 16  16 28 58.732   +24 19 26.43  2.7462 3.4578 127.3 22.8 .126   7
2021 06 21 17  16 28 53.274   +24 19 43.89  2.7466 3.4579 127.3 22.8 .129   7
2021 06 21 18  16 28 47.818   +24 20 01.30  2.7471 3.4579 127.2 22.8 .132   7
2021 06 21 19  16 28 42.364   +24 20 18.66  2.7475 3.4580 127.2 22.8 .135   6
2021 06 21 20  16 28 36.913   +24 20 35.99  2.7480 3.4581 127.2 22.8 .138   6
2021 06 21 21  16 28 31.464   +24 20 53.27  2.7484 3.4582 127.1 22.8 .141   6
2021 06 21 22  16 28 26.017   +24 21 10.50  2.7489 3.4583 127.1 22.8 .144   6
2021 06 21 23  16 28 20.572   +24 21 27.70  2.7493 3.4584 127.1 22.8 .147   6
2021 06 22 00  16 28 15.130   +24 21 44.84  2.7498 3.4585 127.0 22.8 .150   6
2021 06 22 01  16 28 09.691   +24 22 01.95  2.7502 3.4585 127.0 22.8 .154   6
2021 06 22 02  16 28 04.253   +24 22 19.01  2.7507 3.4586 127.0 22.8 .157   6
2021 06 22 03  16 27 58.818   +24 22 36.03  2.7512 3.4587 126.9 22.8 .160   6
2021 06 22 04  16 27 53.386   +24 22 53.01  2.7516 3.4588 126.9 22.8 .163   6
2021 06 22 05  16 27 47.956   +24 23 09.94  2.7521 3.4589 126.9 22.8 .167   6
2021 06 22 06  16 27 42.528   +24 23 26.83  2.7525 3.4590 126.9 22.8 .170   6
2021 06 22 07  16 27 37.103   +24 23 43.68  2.7530 3.4591 126.8 22.8 .173   6
2021 06 22 08  16 27 31.679   +24 24 00.48  2.7534 3.4591 126.8 22.8 .176   6
2021 06 22 09  16 27 26.259   +24 24 17.24  2.7539 3.4592 126.8 22.8 .180   5
2021 06 22 10  16 27 20.841   +24 24 33.96  2.7543 3.4593 126.7 22.8 .183   5
2021 06 22 11  16 27 15.425   +24 24 50.63  2.7548 3.4594 126.7 22.8 .186   5
2021 06 22 12  16 27 10.012   +24 25 07.26  2.7553 3.4595 126.7 22.8 .190   5
2021 06 22 13  16 27 04.601   +24 25 23.85  2.7557 3.4596 126.6 22.8 .193   5
2021 06 22 14  16 26 59.192   +24 25 40.39  2.7562 3.4597 126.6 22.8 .196   5
2021 06 22 15  16 26 53.786   +24 25 56.89  2.7567 3.4598 126.6 22.8 .200   5
2021 06 22 16  16 26 48.382   +24 26 13.35  2.7571 3.4598 126.5 22.8 .203   5
2021 06 22 17  16 26 42.981   +24 26 29.76  2.7576 3.4599 126.5 22.8 .207   5
2021 06 22 18  16 26 37.582   +24 26 46.14  2.7580 3.4600 126.5 22.8 .210   5